Voltar ao catálogo

COSMOS 2251 DEB

AtivoLEO
NORAD 35825·DEBRIS·🇷🇺 Russia

Lançado Jun 16, 1993 de Plesetsk Cosmodrome

Loading…

Próximas Passagens (próximas 24 horas)

TLE

EnvelhecendoSource: Space-Track

Época: Sep 9, 2026, 18:36 UTC

1 35825U 93036ASX 26252.77514527  .00001041  00000-0  75128-3 0  9991
2 35825  74.1108  56.6444 0352493  87.8624 276.2809 13.71838543862245

Acompanhe COSMOS 2251 DEB em tempo real com AllMySat

Download on the App Store